Location: Newark
(0.5333°S, 166.9167°E)
Time: 02:29:25
(UTC+00:00)

Envisat - Visible Passes

Search period start: 22 March 2019 00:00
Search period end: 01 April 2019 00:00
Orbit: 764 x 766 km, 98.2° (Epoch: 21 March)

Date Brightness Start Highest point End Pass type
(mag) Time Alt. Az. Time Alt. Az. Time Alt. Az.
22 Mar 4.4 08:25:33 10° S 08:30:16 39° WSW 08:34:58 10° NW visible
23 Mar 2.9 07:48:34 10° SSE 07:53:38 72° ENE 07:58:40 10° N visible
24 Mar 5.6 08:52:11 10° SSW 08:55:43 19° WSW 08:59:14 10° WNW visible
25 Mar 3.7 08:14:08 10° S 08:19:05 54° WSW 08:24:01 10° NNW visible
26 Mar 3.1 07:37:30 10° SSE 07:42:27 52° ENE 07:47:20 10° N visible
27 Mar 5.1 08:40:23 10° SSW 08:44:32 26° WSW 08:48:41 10° NW visible
28 Mar 3.2 08:02:50 10° S 08:07:54 74° WSW 08:12:57 10° NNW visible
29 Mar 3.5 07:26:34 10° SE 07:31:15 38° ENE 07:35:55 10° N visible
29 Mar 6.0 09:08:02 10° SW 09:09:58 12° WSW 09:11:53 10° W visible
30 Mar 4.6 08:28:46 10° SSW 08:33:21 35° WSW 08:37:56 10° NW visible
31 Mar 2.9 07:51:37 10° SSE 07:56:43 81° ENE 08:01:46 10° N visible
